Stations météo

réclame
Mon MeteoGroup
Benavente, Espagne (8056): Température de l'air & dewpoint: 17.09.2018 03:00:00 - 23.09.2018 03:00:00 (CEST)Benavente, Espagne (8056): Vitesse du vent & gusts: 17.09.2018 03:00:00 - 23.09.2018 03:00:00 (CEST)Benavente, Espagne (8056): Direction du vent: 17.09.2018 03:00:00 - 23.09.2018 03:00:00 (CEST)Benavente, Espagne (8056): reduced air pressure: 17.09.2018 03:00:00 - 23.09.2018 03:00:00 (CEST)Benavente, Espagne (8056): visibility: 17.09.2018 03:00:00 - 23.09.2018 03:00:00 (CEST)Benavente, Espagne (8056): Ensoleillement: 17.09.2018 03:00:00 - 23.09.2018 03:00:00 (CEST)Benavente, Espagne (8056): Quantités de précipitations: 17.09.2018 03:00:00 - 23.09.2018 03:00:00 (CEST)
Date & Time tt [°C] td [°C] ff [km/h] ff [knt] fx [km/h] fx [knt] dd ppp [hPa] vv [km] sd [min] rr [mm]
23.09.2018 03:00:00 - - - - - - - - - - -
23.09.2018 02:00:00 18,0 10,9 8 5 19 10 NNW 1023,9 20 0 -
23.09.2018 01:00:00 18,3 9,7 3 2 12 7 N 1023,9 20 0 0,0
23.09.2018 00:00:00 17,5 9,4 1 1 3 2 SSW 1023,8 20 0 0,0
22.09.2018 23:00:00 18,9 9,0 1 1 5 3 E 1023,3 20 0 0,0
22.09.2018 22:00:00 20,7 8,7 3 1 5 3 S 1022,4 20 0 0,0
22.09.2018 21:00:00 23,1 9,4 1 1 5 3 SSW 1021,2 20 0 0,0
22.09.2018 20:00:00 27,9 8,7 3 2 9 5 SE 1019,3 20 35 -
22.09.2018 19:00:00 30,8 5,3 3 2 15 8 SSE 1018,6 20 55 0,0
22.09.2018 18:00:00 30,4 7,0 5 3 16 9 S 1018,8 20 60 0,0
22.09.2018 17:00:00 30,4 7,0 5 3 16 9 S 1019,0 20 60 0,0
22.09.2018 16:00:00 29,6 6,8 5 3 16 9 SW 1019,7 20 60 0,0
22.09.2018 15:00:00 28,6 8,3 3 2 14 7 SW 1020,2 20 60 0,0
22.09.2018 14:00:00 26,6 9,4 6 3 16 8 SSW 1021,4 20 60 -
22.09.2018 13:00:00 24,4 11,3 4 2 13 7 ENE 1022,5 20 60 0,0
22.09.2018 12:00:00 21,8 12,3 4 2 14 8 N 1023,4 20 60 0,0
22.09.2018 11:00:00 19,2 12,2 8 4 14 8 NE 1024,0 20 60 0,0
22.09.2018 10:00:00 16,9 12,0 5 3 9 5 ENE 1024,3 20 60 0,0
22.09.2018 09:00:00 13,0 10,5 2 1 6 3 NE 1025,1 20 29 0,0
22.09.2018 08:00:00 12,4 9,9 0 0 9 5 N 1024,8 19 0 -
22.09.2018 07:00:00 12,8 10,5 4 2 7 4 N 1024,4 19 0 0,0
22.09.2018 06:00:00 14,1 11,2 5 3 13 7 N 1023,8 20 0 0,0
22.09.2018 05:00:00 14,2 11,3 4 2 8 4 N 1023,3 20 0 0,0
22.09.2018 04:00:00 15,0 11,6 5 3 14 8 NNE 1023,4 20 0 0,0
22.09.2018 03:00:00 15,1 11,3 6 3 10 5 N 1023,6 20 0 0,0
22.09.2018 02:00:00 15,9 11,4 2 1 9 5 N 1022,8 20 0 -
22.09.2018 01:00:00 16,9 12,2 7 4 16 9 NNE 1022,5 20 0 0,0
22.09.2018 00:00:00 18,7 12,4 7 4 13 7 N 1021,6 20 0 0,0
21.09.2018 23:00:00 18,8 11,6 6 3 12 6 N 1021,1 20 0 0,0
21.09.2018 22:00:00 20,9 11,0 9 5 13 7 N 1020,0 20 0 0,0
21.09.2018 21:00:00 20,7 8,0 3 2 9 5 N 1019,4 20 0 0,0
21.09.2018 20:00:00 24,5 8,0 1 1 6 3 NNE 1018,1 20 0 -
21.09.2018 19:00:00 26,5 4,8 3 1 9 5 NE 1017,4 20 2 0,0
21.09.2018 18:00:00 27,1 3,6 7 4 15 8 S 1016,9 20 36 0,0
21.09.2018 17:00:00 27,0 4,1 3 2 14 7 NNW 1017,2 20 60 0,0
21.09.2018 16:00:00 27,1 4,8 4 2 16 9 WSW 1017,3 20 60 0,0
21.09.2018 15:00:00 26,1 5,6 5 3 15 8 ESE 1017,7 20 30 0,0
21.09.2018 14:00:00 25,4 6,1 5 3 14 8 SSE 1018,5 20 57 -
21.09.2018 13:00:00 23,6 5,9 5 3 13 7 WSW 1019,5 20 60 0,0
21.09.2018 12:00:00 21,5 7,0 4 2 12 6 N 1020,3 20 60 0,0
21.09.2018 11:00:00 19,1 8,7 3 1 7 4 SE 1020,5 20 60 0,0
21.09.2018 10:00:00 15,6 8,5 3 2 7 4 E 1021,0 20 52 0,0
21.09.2018 09:00:00 12,3 7,6 2 1 9 5 W 1021,5 20 22 0,0
21.09.2018 08:00:00 10,9 6,8 2 1 6 3 NW 1021,7 14 0 -
21.09.2018 07:00:00 12,1 7,4 2 1 5 3 SSE 1020,5 20 0 0,0
21.09.2018 06:00:00 12,0 6,8 2 1 12 7 NNW 1020,4 20 0 0,0
21.09.2018 05:00:00 13,5 7,3 3 2 6 3 WSW 1019,5 20 0 0,0
21.09.2018 04:00:00 13,9 7,7 2 1 6 4 W 1019,6 20 0 0,0
21.09.2018 03:00:00 14,4 7,4 3 1 9 5 NW 1019,6 20 0 0,0
21.09.2018 02:00:00 15,3 8,1 3 2 8 4 NE 1019,2 20 0 -
21.09.2018 01:00:00 16,7 7,3 3 2 7 4 NNE 1018,7 20 0 0,0
21.09.2018 00:00:00 18,2 6,7 4 2 8 5 SE 1018,3 20 0 0,0
20.09.2018 23:00:00 20,7 3,0 4 2 12 6 NW 1017,3 20 0 0,0
20.09.2018 22:00:00 22,5 3,0 4 2 14 7 W 1016,5 20 0 0,0
20.09.2018 21:00:00 24,3 3,6 6 3 23 12 WNW 1015,6 20 0 0,0
20.09.2018 20:00:00 26,4 5,3 9 5 23 12 W 1014,6 20 4 -
20.09.2018 19:00:00 28,2 4,5 10 6 31 17 W 1014,1 20 36 0,0
20.09.2018 18:00:00 30,1 4,6 16 8 34 19 W 1013,5 20 60 0,0
20.09.2018 17:00:00 30,6 5,1 14 7 41 22 WSW 1013,8 20 60 0,0
20.09.2018 16:00:00 30,5 3,4 18 10 39 21 WSW 1014,1 20 60 0,0
20.09.2018 15:00:00 29,2 8,3 10 5 29 16 W 1014,9 20 60 0,0
20.09.2018 14:00:00 27,2 9,0 5 3 14 8 S 1016,6 18 60 -
20.09.2018 13:00:00 25,4 8,4 5 3 13 7 S 1018,1 20 60 0,0
20.09.2018 12:00:00 22,2 11,2 4 2 11 6 N 1019,2 20 60 0,0
20.09.2018 11:00:00 19,3 11,8 4 2 11 6 NE 1020,1 19 60 0,0
20.09.2018 10:00:00 16,6 9,6 7 4 12 7 NE 1020,8 20 60 0,0
20.09.2018 09:00:00 13,1 8,8 3 2 8 5 NNE 1021,8 20 40 0,0
20.09.2018 08:00:00 12,0 7,8 4 2 7 4 NW 1022,0 20 0 -
20.09.2018 07:00:00 12,4 8,5 4 2 10 5 ENE 1021,6 20 0 0,0
20.09.2018 06:00:00 13,3 8,4 5 3 9 5 NNW 1021,3 20 0 0,0
20.09.2018 05:00:00 15,3 8,3 5 3 10 5 NNW 1020,9 20 0 0,0
20.09.2018 04:00:00 15,6 7,8 2 1 8 4 N 1021,1 20 0 0,0
20.09.2018 03:00:00 16,0 8,3 5 3 8 4 N 1021,1 20 0 0,0
20.09.2018 02:00:00 16,4 8,1 2 1 10 5 NNW 1021,0 20 0 -
20.09.2018 01:00:00 18,9 8,5 4 2 16 8 NNW 1020,4 20 0 0,0
20.09.2018 00:00:00 19,1 8,7 5 3 16 9 N 1020,1 20 0 0,0
19.09.2018 23:00:00 22,2 9,0 9 5 19 11 NW 1019,0 20 0 0,0
19.09.2018 22:00:00 23,6 5,9 6 3 13 7 W 1018,4 20 0 0,0
19.09.2018 21:00:00 25,4 5,6 6 3 12 7 W 1017,0 20 0 0,0
19.09.2018 20:00:00 27,7 7,0 4 2 16 9 SSW 1016,3 14 47 -
19.09.2018 19:00:00 29,8 6,4 8 4 22 12 S 1015,4 20 47 0,0
19.09.2018 18:00:00 30,0 5,9 10 5 23 12 SSW 1015,4 20 60 0,0
19.09.2018 17:00:00 30,0 5,3 11 6 24 13 S 1015,8 20 60 0,0
19.09.2018 16:00:00 29,7 6,4 10 5 26 14 SSW 1016,3 20 60 0,0
19.09.2018 15:00:00 28,3 9,0 9 5 20 11 SSW 1017,3 20 60 0,0
19.09.2018 14:00:00 26,7 8,7 5 3 18 10 SSW 1018,1 20 60 -
19.09.2018 13:00:00 24,8 11,3 5 3 17 9 E 1019,0 20 60 0,0
19.09.2018 12:00:00 22,2 12,1 5 3 17 9 NE 1020,1 20 60 0,0
19.09.2018 11:00:00 20,0 12,0 6 4 15 8 NNE 1020,7 20 60 0,0
19.09.2018 10:00:00 16,8 10,4 6 3 13 7 N 1021,2 20 60 0,0
19.09.2018 09:00:00 13,8 9,4 5 3 10 6 N 1021,8 20 38 0,0
19.09.2018 08:00:00 12,5 8,9 7 4 13 7 N 1021,5 20 0 -
19.09.2018 07:00:00 12,3 8,8 3 1 14 7 NNW 1021,1 20 0 0,0
19.09.2018 06:00:00 13,1 8,8 3 2 6 3 NNE 1020,5 20 0 0,0
19.09.2018 05:00:00 13,3 8,9 2 1 10 5 ENE 1020,1 20 0 0,0
19.09.2018 04:00:00 14,5 8,7 2 1 12 7 N 1019,8 20 0 0,0
19.09.2018 03:00:00 15,1 8,4 6 4 11 6 NNW 1019,8 20 0 0,0
19.09.2018 02:00:00 16,1 7,8 5 3 10 5 N 1019,5 20 0 -
19.09.2018 01:00:00 17,3 7,8 5 3 8 5 NNW 1018,7 20 0 0,0
19.09.2018 00:00:00 20,0 7,4 3 1 24 13 E 1017,6 20 0 0,0
18.09.2018 23:00:00 21,4 6,8 12 7 29 15 NW 1016,9 20 0 0,0
18.09.2018 22:00:00 23,0 8,3 10 6 24 13 NNW 1016,2 20 0 0,0
18.09.2018 21:00:00 23,8 6,1 8 4 15 8 WNW 1015,0 20 0 0,0
18.09.2018 20:00:00 26,4 4,1 5 3 21 11 WSW 1013,6 20 33 -
18.09.2018 19:00:00 28,3 4,5 10 5 24 13 W 1012,6 20 52 0,0
18.09.2018 18:00:00 29,5 4,8 12 6 34 19 W 1011,8 20 60 0,0
18.09.2018 17:00:00 29,3 6,1 9 5 38 20 W 1011,9 20 60 0,0
18.09.2018 16:00:00 29,2 5,3 12 7 35 19 WSW 1012,0 20 60 0,0
18.09.2018 15:00:00 28,7 7,3 9 5 30 16 SW 1012,5 20 59 0,0
18.09.2018 14:00:00 27,8 8,7 6 4 21 12 S 1013,4 20 60 -
18.09.2018 13:00:00 25,6 8,1 8 5 17 9 W 1014,6 20 60 0,0
18.09.2018 12:00:00 23,3 9,7 5 3 13 7 WNW 1015,5 20 60 0,0
18.09.2018 11:00:00 21,1 11,4 3 2 8 5 N 1015,8 20 60 0,0
18.09.2018 10:00:00 19,0 11,8 3 2 15 8 ESE 1015,8 20 60 0,0
18.09.2018 09:00:00 15,7 9,6 7 4 17 9 NW 1016,4 20 37 0,0
18.09.2018 08:00:00 15,0 9,3 4 2 10 6 NW 1016,3 20 0 -
18.09.2018 07:00:00 15,8 9,7 4 2 11 6 W 1015,5 20 0 0,0
18.09.2018 06:00:00 17,4 10,5 4 2 13 7 N 1014,8 20 0 0,0
18.09.2018 05:00:00 18,6 10,4 3 2 14 8 WNW 1014,1 20 0 0,0
18.09.2018 04:00:00 18,9 11,2 5 3 14 8 W 1014,3 20 0 0,0
18.09.2018 03:00:00 18,9 10,8 5 3 8 4 WNW 1014,7 20 0 0,0
18.09.2018 02:00:00 20,1 11,0 3 2 13 7 N 1014,1 20 0 -
18.09.2018 01:00:00 20,6 11,6 10 5 19 11 WNW 1013,7 20 0 0,0
18.09.2018 00:00:00 21,7 11,1 9 5 16 9 WNW 1013,1 20 0 0,0
17.09.2018 23:00:00 22,6 11,3 8 4 12 7 WNW 1012,7 20 0 0,0
17.09.2018 22:00:00 22,3 13,9 3 2 13 7 N 1012,7 20 0 0,0
17.09.2018 21:00:00 22,9 11,9 4 2 15 8 WNW 1011,8 20 0 0,0
17.09.2018 20:00:00 - - - - - - - - - - -
17.09.2018 19:00:00 25,4 12,6 7 4 14 8 ENE 1010,6 20 13 0,0
17.09.2018 18:00:00 29,1 7,0 5 3 17 9 S 1009,9 20 8 0,0
17.09.2018 17:00:00 29,9 7,1 10 5 25 13 SSW 1010,4 20 39 0,0
17.09.2018 16:00:00 30,8 5,9 10 5 23 13 S 1010,9 20 60 0,0
17.09.2018 15:00:00 29,5 7,4 9 5 21 11 SSW 1012,3 20 57 0,0
17.09.2018 14:00:00 27,9 9,7 4 2 12 6 S 1013,3 20 35 -
17.09.2018 13:00:00 26,3 10,9 5 3 10 5 SE 1014,6 20 60 0,0
17.09.2018 12:00:00 23,1 11,2 5 3 15 8 NNE 1016,0 20 60 0,0
17.09.2018 11:00:00 20,3 11,0 8 4 15 8 NNE 1017,1 20 60 0,0
17.09.2018 10:00:00 17,6 9,2 5 3 12 6 NNE 1018,1 20 60 0,0
17.09.2018 09:00:00 14,3 8,0 5 3 11 6 N 1019,2 20 27 0,0
17.09.2018 08:00:00 13,3 7,7 6 3 11 6 N 1019,2 20 0 -
17.09.2018 07:00:00 13,7 7,7 7 4 15 8 N 1018,8 20 0 0,0
17.09.2018 06:00:00 13,8 8,4 5 3 11 6 N 1019,1 20 0 0,0
17.09.2018 05:00:00 14,2 9,2 4 2 8 4 N 1019,0 20 0 0,0
17.09.2018 04:00:00 14,6 9,8 2 1 13 7 N 1019,1 20 0 0,0
17.09.2018 03:00:00 16,2 9,6 6 3 11 6 NNW 1018,8 20 0 0,0

tt = Température de l'air
td = dewpoint
ff = Vitesse du vent
fx = gusts
dd = Direction du vent
ppp = reduced air pressure
vv = visibility
sd = Ensoleillement
rr = Quantités de précipitations

stations d'obs. à proximité